Time,TemperatureF,DewpointF,PressureIn,WindDirection,WindDirectionDegrees,WindSpeedMPH,WindSpeedGustMPH,Humidity,HourlyPrecipIn,Conditions,Clouds,dailyrainin,SoftwareType,DateUTC
2013-10-30 00:13:00,68.0,67.0,30.17,SSE,163,0.0,2.0,96,0.00,,,0.00,,2013-10-30 05:13:00,
2013-10-30 00:22:00,68.0,67.0,30.17,SSE,163,0.0,2.0,96,0.00,,,0.00,,2013-10-30 05:22:00,
2013-10-30 00:34:00,68.0,67.0,30.17,SSE,163,0.0,2.0,96,0.00,,,0.00,,2013-10-30 05:34:00,
2013-10-30 00:53:00,68.0,67.0,30.16,SSE,148,1.0,3.0,96,0.00,,,0.00,,2013-10-30 05:53:00,
2013-10-30 01:13:00,68.0,67.0,30.16,SSE,160,0.0,3.0,96,0.00,,,0.00,,2013-10-30 06:13:00,
2013-10-30 01:22:00,68.0,67.0,30.16,SSE,160,0.0,3.0,96,0.00,,,0.00,,2013-10-30 06:22:00,
2013-10-30 01:32:00,68.0,67.0,30.16,SSE,160,0.0,3.0,96,0.00,,,0.00,,2013-10-30 06:32:00,
2013-10-30 02:22:00,66.0,65.0,30.14,SSE,158,0.0,0.0,97,0.00,,,0.00,,2013-10-30 07:22:00,
2013-10-30 02:52:00,66.0,65.0,30.14,ESE,113,0.0,0.0,97,0.00,,,0.00,,2013-10-30 07:52:00,
2013-10-30 03:21:00,66.0,65.0,30.14,East,86,0.0,0.0,97,0.00,,,0.00,,2013-10-30 08:21:00,
2013-10-30 03:52:00,66.0,65.0,30.14,ESE,106,0.0,0.0,98,0.00,,,0.00,,2013-10-30 08:52:00,
2013-10-30 04:22:00,66.0,65.0,30.14,ESE,106,0.0,0.0,98,0.00,,,0.00,,2013-10-30 09:22:00,
2013-10-30 04:54:00,65.0,64.0,30.14,ESE,106,0.0,0.0,98,0.00,,,0.00,,2013-10-30 09:54:00,
2013-10-30 05:23:00,65.0,64.0,30.13,ESE,106,0.0,0.0,98,0.00,,,0.00,,2013-10-30 10:23:00,
2013-10-30 05:53:00,65.0,64.0,30.12,ESE,115,2.0,5.0,98,0.00,,,0.00,,2013-10-30 10:53:00,
2013-10-30 06:02:00,65.0,64.0,30.12,ESE,115,2.0,5.0,98,0.00,,,0.00,,2013-10-30 11:02:00,
2013-10-30 06:22:00,66.0,65.0,30.12,East,85,1.0,5.0,98,0.00,,,0.00,,2013-10-30 11:22:00,
2013-10-30 06:33:00,66.0,65.0,30.12,East,85,1.0,5.0,98,0.00,,,0.00,,2013-10-30 11:33:00,
2013-10-30 06:52:00,66.0,65.0,30.13,SE,137,0.0,1.0,98,0.00,,,0.00,,2013-10-30 11:52:00,
2013-10-30 07:01:00,66.0,65.0,30.13,SE,137,0.0,1.0,98,0.00,,,0.00,,2013-10-30 12:01:00,
2013-10-30 07:12:00,66.0,65.0,30.13,SE,137,0.0,1.0,98,0.00,,,0.00,,2013-10-30 12:12:00,
2013-10-30 07:22:00,66.0,65.0,30.13,SE,137,0.0,1.0,98,0.00,,,0.00,,2013-10-30 12:22:00,
2013-10-30 07:52:00,66.0,66.0,30.13,SE,133,0.0,2.0,99,0.00,,,0.00,,2013-10-30 12:52:00,
2013-10-30 08:22:00,67.0,67.0,30.13,ESE,107,0.0,0.0,99,0.00,,,0.00,,2013-10-30 13:22:00,
2013-10-30 08:52:00,67.0,67.0,30.13,SSE,148,2.0,6.0,99,0.00,,,0.00,,2013-10-30 13:52:00,
2013-10-30 09:21:00,68.0,67.0,30.13,SSE,156,3.0,8.0,98,0.00,,,0.00,,2013-10-30 14:21:00,
2013-10-30 09:52:00,70.0,69.0,30.14,SSE,151,3.0,10.0,97,0.00,,,0.00,,2013-10-30 14:52:00,
2013-10-30 10:00:00,72.0,71.0,30.15,ESE,117,1.0,8.0,96,0.00,,,0.00,,2013-10-30 15:00:00,
2013-10-30 10:22:00,72.0,71.0,30.15,ESE,117,1.0,8.0,96,0.00,,,0.00,,2013-10-30 15:22:00,
2013-10-30 10:33:00,72.0,71.0,30.15,ESE,117,1.0,8.0,96,0.00,,,0.00,,2013-10-30 15:33:00,
2013-10-30 10:54:00,72.0,71.0,30.15,ESE,117,1.0,8.0,96,0.00,,,0.00,,2013-10-30 15:54:00,
2013-10-30 11:23:00,75.0,72.0,30.12,SSE,157,6.0,14.0,91,0.00,,,0.00,,2013-10-30 16:23:00,
2013-10-30 11:53:00,76.0,72.0,30.12,SSE,155,5.0,13.0,88,0.00,,,0.00,,2013-10-30 16:53:00,
2013-10-30 12:23:00,77.0,73.0,30.09,SSE,159,6.0,9.0,87,0.00,,,0.00,,2013-10-30 17:23:00,
2013-10-30 12:33:00,77.0,73.0,30.09,SSE,159,6.0,9.0,87,0.00,,,0.00,,2013-10-30 17:33:00,
2013-10-30 12:52:00,78.0,73.0,30.08,South,170,6.0,12.0,84,0.00,,,0.00,,2013-10-30 17:52:00,
2013-10-30 13:21:00,78.0,72.0,30.07,South,170,5.0,9.0,82,0.00,,,0.00,,2013-10-30 18:21:00,
2013-10-30 13:32:00,78.0,72.0,30.07,South,170,5.0,9.0,82,0.00,,,0.00,,2013-10-30 18:32:00,
2013-10-30 13:52:00,79.0,72.0,30.04,South,175,3.0,10.0,78,0.00,,,0.00,,2013-10-30 18:52:00,
2013-10-30 14:01:00,79.0,72.0,30.04,South,175,3.0,10.0,78,0.00,,,0.00,,2013-10-30 19:01:00,
2013-10-30 14:21:00,79.0,72.0,30.03,SSE,162,2.0,7.0,78,0.00,,,0.00,,2013-10-30 19:21:00,
2013-10-30 14:32:00,79.0,72.0,30.03,SSE,162,2.0,7.0,78,0.00,,,0.00,,2013-10-30 19:32:00,
2013-10-30 14:52:00,81.0,71.0,30.01,SSW,211,3.0,13.0,72,0.00,,,0.00,,2013-10-30 19:52:00,
2013-10-30 15:12:00,81.0,70.0,30.00,South,175,2.0,7.0,70,0.00,,,0.00,,2013-10-30 20:12:00,
2013-10-30 15:22:00,81.0,70.0,30.00,South,175,2.0,7.0,70,0.00,,,0.00,,2013-10-30 20:22:00,
2013-10-30 15:52:00,81.0,70.0,29.98,SSE,168,3.0,14.0,69,0.00,,,0.00,,2013-10-30 20:52:00,
2013-10-30 16:20:00,79.0,68.0,29.97,South,173,3.0,13.0,70,0.00,,,0.00,,2013-10-30 21:20:00,
2013-10-30 16:21:00,80.0,70.0,29.98,SSW,195,2.0,7.0,71,0.00,,,0.00,,2013-10-30 21:21:00,
2013-10-30 16:53:00,79.0,68.0,29.97,South,173,3.0,13.0,70,0.00,,,0.00,,2013-10-30 21:53:00,
2013-10-30 17:04:00,79.0,68.0,29.97,South,173,3.0,13.0,70,0.00,,,0.00,,2013-10-30 22:04:00,
2013-10-30 17:13:00,79.0,68.0,29.97,South,173,3.0,13.0,70,0.00,,,0.00,,2013-10-30 22:13:00,
2013-10-30 18:23:00,77.0,69.0,29.98,ESE,121,2.0,9.0,76,0.00,,,0.00,,2013-10-30 23:23:00,
2013-10-30 18:53:00,76.0,69.0,29.99,SSE,149,2.0,8.0,80,0.00,,,0.00,,2013-10-30 23:53:00,
2013-10-30 19:22:00,76.0,69.0,29.99,SE,138,3.0,6.0,80,0.00,,,0.00,,2013-10-31 00:22:00,
2013-10-30 19:32:00,76.0,69.0,29.99,SE,138,3.0,6.0,80,0.00,,,0.00,,2013-10-31 00:32:00,
2013-10-30 19:52:00,75.0,69.0,30.00,SSE,156,2.0,6.0,83,0.00,,,0.00,,2013-10-31 00:52:00,
2013-10-30 20:22:00,75.0,70.0,30.01,South,169,3.0,8.0,84,0.00,,,0.00,,2013-10-31 01:22:00,
2013-10-30 20:52:00,75.0,70.0,30.00,SSE,163,2.0,10.0,84,0.00,,,0.00,,2013-10-31 01:52:00,
2013-10-30 21:02:00,75.0,70.0,30.00,SSE,163,2.0,10.0,84,0.00,,,0.00,,2013-10-31 02:02:00,
2013-10-30 21:22:00,74.0,70.0,30.00,SSE,153,4.0,12.0,86,0.00,,,0.00,,2013-10-31 02:22:00,
2013-10-30 21:32:00,74.0,70.0,30.00,SSE,153,4.0,12.0,86,0.00,,,0.00,,2013-10-31 02:32:00,
2013-10-30 21:42:00,74.0,70.0,30.00,SSE,153,4.0,12.0,86,0.00,,,0.00,,2013-10-31 02:42:00,
2013-10-30 22:11:00,73.0,70.0,30.00,SSE,150,3.0,9.0,89,0.00,,,0.00,,2013-10-31 03:11:00,
2013-10-30 22:20:00,73.0,70.0,30.00,South,186,6.0,9.0,91,0.00,,,0.00,,2013-10-31 03:20:00,
2013-10-30 22:22:00,73.0,70.0,30.00,SSE,150,3.0,9.0,89,0.00,,,0.00,,2013-10-31 03:22:00,
2013-10-30 22:55:00,73.0,70.0,30.00,South,186,6.0,9.0,91,0.00,,,0.00,,2013-10-31 03:55:00,
2013-10-30 23:04:00,73.0,70.0,30.00,South,186,6.0,9.0,91,0.00,,,0.00,,2013-10-31 04:04:00,
2013-10-30 23:14:00,73.0,70.0,30.00,South,186,6.0,9.0,91,0.00,,,0.00,,2013-10-31 04:14:00,
2013-10-30 23:54:00,74.0,72.0,29.96,SSE,160,3.0,14.0,92,0.00,,,0.00,,2013-10-31 04:54:00,